Terminal Aerodrome Forecast
Issued by NWS

Home | Current Version | Previous Version | Text Only | Print | Product List | Glossary On
Versions: 1 2 3 4 5 6 7 8 9 10 11 12 13
000
FTAK31 PAFA 211138
TAFAFA
TAF
PAFA 211138Z 2112/2218 36011KT P6SM FEW060 BKN090
     FM212100 08006KT P6SM FEW050 SCT100
     FM220700 VRB04KT P6SM SKC=

USA.gov is the U.S. government's official web portal to all federal, state and local government web resources and services.